Flag for U.S.A. Weather past 2 weeks in Freehold, New Jersey, U.S.A.

Now
68 °F

Overcast.


Feels Like: 68 °F
Forecast: 64 / 74 °F
Wind: 12 mph from East

Location: Belmar-Farmdale

Current Time: Aug 23, 2014 at 4:17:05 AM

Latest Report: Aug 23, 2014 at 3:55 AM


Visibility: 10 mi

Pressure: 30.02 "Hg

Humidity: 73%

Dew point: 59 °F

Location of FreeholdLocation

Historic Weather in Freehold — Graph

°F

Freehold temperature yesterday

Maximum temperature yesterday: 73 °F (at 12:35 PM)
Minimum temperature yesterday: 66 °F (at 1:35 AM)
Average temperature yesterday: 70 °F

Past Weeks' High & Low Weather Summary

 TemperatureHumidityPressure
High84 °F (Aug 10, 1:55 PM)88% (Aug 13, 12:35 AM)30.16 "Hg (Aug 13, 12:35 AM)
Low55 °F (Aug 15, 6:55 AM)37% (Aug 8, 4:35 PM)29.67 "Hg (Aug 13, 3:35 PM)
Average71 °F65%29.98 "Hg
* Reported Aug 8 3:15 AM — Aug 23 3:15 AM, Freehold, Weather by CustomWeather, © 2014

Note: Actual official high and low records may vary slightly from our data, if they occured in-between our weather recording intervals... More about our weather records

Advertising

Freehold weather history for previous 24 hours

 ConditionsComfort  
Time TempWeatherWind HumidityBarometerVisibility
3:15 AM
Aug 23
70 °FMostly cloudy.9 mph69%30.03 "Hg10 mi
2:55 AM70 °FMostly cloudy.12 mph69%30.03 "Hg10 mi
2:35 AM70 °FOvercast.8 mph73%30.02 "Hg10 mi
1:55 AM68 °FMostly cloudy.8 mph73%30.03 "Hg10 mi
1:35 AM70 °FOvercast.8 mph69%30.03 "Hg10 mi
1:15 AM70 °FMostly cloudy.8 mph69%30.04 "Hg10 mi
12:55 AM70 °FOvercast.8 mph73%30.04 "Hg10 mi
12:35 AM70 °FOvercast.7 mph73%30.04 "Hg10 mi
12:15 AM70 °FOvercast.10 mph73%30.04 "Hg10 mi
11:55 PM
Aug 22
70 °FOvercast.7 mph73%30.05 "Hg10 mi
11:35 PM70 °FOvercast.10 mph73%30.04 "Hg10 mi
11:15 PM70 °FOvercast.9 mph73%30.04 "Hg10 mi
10:55 PM70 °FOvercast.6 mph73%30.04 "Hg10 mi
10:35 PM70 °FOvercast.6 mph73%30.04 "Hg10 mi
10:15 PM70 °FOvercast.5 mph73%30.05 "Hg10 mi
9:55 PM70 °FOvercast.6 mph73%30.05 "Hg10 mi
9:35 PM70 °FMostly cloudy.5 mph73%30.05 "Hg10 mi
8:55 PM70 °FOvercast.8 mph73%30.04 "Hg10 mi
8:35 PM70 °FOvercast.9 mph73%30.04 "Hg10 mi
7:55 PM70 °FOvercast.7 mph73%30.03 "Hg10 mi
7:35 PM70 °FOvercast.8 mph73%30.03 "Hg10 mi
7:15 PM72 °FOvercast.6 mph69%30.03 "Hg10 mi
6:55 PM72 °FOvercast.8 mph69%30.02 "Hg10 mi
6:35 PM72 °FPartly sunny.8 mph61%30.02 "Hg10 mi
6:15 PM72 °FPartly sunny.10 mph69%30.02 "Hg10 mi
5:55 PM72 °FPassing clouds.9 mph69%30.02 "Hg10 mi
5:35 PM72 °FScattered clouds.10 mph69%30.01 "Hg10 mi
5:15 PM72 °FPartly sunny.8 mph69%30.01 "Hg10 mi
4:55 PM73 °FOvercast.7 mph65%30.01 "Hg10 mi
4:35 PM73 °FOvercast.7 mph65%30.01 "Hg10 mi
4:15 PM72 °FOvercast.8 mph69%30.01 "Hg10 mi
3:55 PM73 °FBroken clouds.6 mph65%30.02 "Hg10 mi
3:35 PM72 °FScattered clouds.10 mph69%30.02 "Hg10 mi
3:15 PM72 °FPartly sunny.8 mph69%30.03 "Hg10 mi
2:55 PM72 °FOvercast.7 mph69%30.03 "Hg10 mi
2:35 PM72 °FOvercast.8 mph69%30.03 "Hg10 mi
2:15 PM73 °FOvercast.10 mph65%30.03 "Hg10 mi
1:55 PM73 °FOvercast.10 mph65%30.03 "Hg10 mi
1:35 PM73 °FPartly sunny.12 mph65%30.03 "Hg10 mi
1:15 PM73 °FPartly sunny.9 mph65%30.03 "Hg10 mi
12:55 PM73 °FPartly sunny.9 mph61%30.03 "Hg10 mi
12:35 PM73 °FOvercast.10 mph65%30.03 "Hg10 mi
12:15 PM72 °FOvercast.9 mph69%30.04 "Hg10 mi
11:55 AM72 °FMore clouds than sun.9 mph69%30.04 "Hg10 mi
11:35 AM72 °FOvercast.7 mph69%30.04 "Hg10 mi
11:15 AM72 °FMostly cloudy.10 mph69%30.05 "Hg10 mi
10:55 AM72 °FOvercast.9 mph69%30.05 "Hg10 mi
10:35 AM70 °FOvercast.10 mph73%30.05 "Hg10 mi
10:15 AM70 °FMore clouds than sun.8 mph73%30.05 "Hg10 mi
9:55 AM70 °FMore clouds than sun.9 mph78%30.04 "Hg10 mi
9:35 AM70 °FMostly cloudy.10 mph78%30.03 "Hg10 mi
9:15 AM70 °FOvercast.9 mph78%30.03 "Hg10 mi
8:55 AM70 °FMostly cloudy.8 mph78%30.02 "Hg10 mi
8:35 AM70 °FPartly sunny.7 mph78%30.01 "Hg10 mi
7:55 AM70 °FSunny.6 mph83%30.01 "Hg10 mi
7:35 AM70 °FPassing clouds.5 mph78%30.01 "Hg10 mi
7:15 AM68 °FBroken clouds.3 mph83%30.01 "Hg10 mi
6:55 AM66 °FPassing clouds.No wind88%30.01 "Hg10 mi
6:35 AM66 °FPartly cloudy.No wind83%30.01 "Hg10 mi
6:15 AM66 °FOvercast.3 mph88%30.01 "Hg10 mi
5:55 AM66 °FPassing clouds.No wind83%30.00 "Hg10 mi
5:35 AM66 °FPassing clouds.6 mph83%29.98 "Hg10 mi
5:15 AM66 °FOvercast.8 mph83%29.98 "Hg10 mi
4:55 AM66 °FPassing clouds.No wind83%30.00 "Hg10 mi
4:35 AM66 °FPartly cloudy.3 mph83%30.00 "Hg10 mi
4:15 AM66 °FMostly cloudy.6 mph83%30.01 "Hg10 mi
Weather by CustomWeather, © 2014

See weather overviewHow to use our weather pages